owner,sensor,date,latitude,longitude,vertical_datum,wind_speed,wind_to_direction,wind_speed_of_gust,qcFlag 
TABS,ioos:station:wmo:42044:1,2010-03-25T07:00:00Z,26.1914,-97.0507,0.0,1.131724348,136.4324085,2.21,'11111222,11111222,11111222' 
TABS,ioos:station:wmo:42044:1,2010-03-25T07:30:00Z,26.1914,-97.0507,0.0,0.234093998,160.0171507,1.08,'11111222,11111222,11111222' 
TABS,ioos:station:wmo:42044:1,2010-03-25T08:00:00Z,26.1914,-97.0507,0.0,0.595399026,262.2781923,1.65,'11111222,11111222,11111222' 
TABS,ioos:station:wmo:42044:1,2010-03-25T08:30:00Z,26.1914,-97.0507,0.0,1.628895331,321.2302048,2.45,'11111222,11111222,11111222' 
TABS,ioos:station:wmo:42044:1,2010-03-25T09:00:00Z,26.1914,-97.0507,0.0,0.531601354,286.389502,1.35,'11111222,11111222,11111222' 
TABS,ioos:station:wmo:42044:1,2010-03-25T09:30:00Z,26.1914,-97.0507,0.0,1.32280006,308.8626532,2.16,'11111222,11111222,11111222' 
TABS,ioos:station:wmo:42044:1,2010-03-25T10:00:00Z,26.1914,-97.0507,0.0,1.654236984,342.7697771,2.42,'11111222,11111222,11111222' 
TABS,ioos:station:wmo:42044:1,2010-03-25T10:30:00Z,26.1914,-97.0507,0.0,0.78644771,41.3912239,1.35,'11111222,11111222,11111222' 
TABS,ioos:station:wmo:42044:1,2010-03-25T11:00:00Z,26.1914,-97.0507,0.0,1.199416525,82.81532849,1.98,'11111222,11111222,11111222' 
TABS,ioos:station:wmo:42044:1,2010-03-25T11:30:00Z,26.1914,-97.0507,0.0,3.703241823,344.0119267,4.94,'11111222,11111222,11111222' 
TABS,ioos:station:wmo:42044:1,2010-03-25T12:00:00Z,26.1914,-97.0507,0.0,6.310641806,332.7445249,7.87,'11111222,11111222,11111222' 
TABS,ioos:station:wmo:42044:1,2010-03-25T12:30:00Z,26.1914,-97.0507,0.0,6.028150629,342.526735,7.59,'11111222,11111222,11111222' 
TABS,ioos:station:wmo:42044:1,2010-03-25T13:00:00Z,26.1914,-97.0507,0.0,5.260465759,342.9771783,6.55,'11111222,11111222,11111222' 
TABS,ioos:station:wmo:42044:1,2010-03-25T13:30:00Z,26.1914,-97.0507,0.0,5.738022307,337.9944668,8.31,'11111222,11111222,11111222' 
TABS,ioos:station:wmo:42044:1,2010-03-25T14:00:00Z,26.1914,-97.0507,0.0,9.013989128,337.7026838,10.87,'11111222,11111222,11111222' 
TABS,ioos:station:wmo:42044:1,2010-03-25T14:30:00Z,26.1914,-97.0507,0.0,9.706286623,346.0494793,12.65,'11111222,11111222,11111222' 
TABS,ioos:station:wmo:42044:1,2010-03-25T15:00:00Z,26.1914,-97.0507,0.0,9.138364186,349.6613199,11.08,'11111222,11111222,11111222' 
TABS,ioos:station:wmo:42044:1,2010-03-25T15:30:00Z,26.1914,-97.0507,0.0,9.337772754,344.0881442,12.09,'11111222,11111222,11111222' 
TABS,ioos:station:wmo:42044:1,2010-03-25T16:00:00Z,26.1914,-97.0507,0.0,9.942927134,342.2573547,12.44,'11111222,11111222,11111222' 
TABS,ioos:station:wmo:42044:1,2010-03-25T16:30:00Z,26.1914,-97.0507,0.0,9.267389061,331.4436727,12.19,'11111222,11111222,11111222' 
TABS,ioos:station:wmo:42044:1,2010-03-25T17:00:00Z,26.1914,-97.0507,0.0,8.196511453,331.7464439,10.76,'11111222,11111222,11111222' 
TABS,ioos:station:wmo:42044:1,2010-03-25T17:30:00Z,26.1914,-97.0507,0.0,7.745353446,338.1709577,9.67,'11111222,11111222,11111222' 
TABS,ioos:station:wmo:42044:1,2010-03-25T18:00:00Z,26.1914,-97.0507,0.0,7.951503003,333.2414526,9.9,'11111222,11111222,11111222' 
TABS,ioos:station:wmo:42044:1,2010-03-25T18:30:00Z,26.1914,-97.0507,0.0,7.863866733,345.1153401,10.23,'11111222,11111222,11111222' 
TABS,ioos:station:wmo:42044:1,2010-03-25T19:00:00Z,26.1914,-97.0507,0.0,7.228118704,352.1275405,9.94,'11111222,11111222,11111222' 
TABS,ioos:station:wmo:42044:1,2010-03-25T19:30:00Z,26.1914,-97.0507,0.0,7.332209762,358.5930851,9.35,'11111222,11111222,11111222' 
TABS,ioos:station:wmo:42044:1,2010-03-25T20:00:00Z,26.1914,-97.0507,0.0,7.480106951,0.306180447,9.6,'11111222,11111222,11111222' 
TABS,ioos:station:wmo:42044:1,2010-03-25T20:30:00Z,26.1914,-97.0507,0.0,6.738582937,5.2788834,8.55,'11111222,11111222,11111222' 
TABS,ioos:station:wmo:42044:1,2010-03-25T21:00:00Z,26.1914,-97.0507,0.0,6.709411301,4.359187192,8.55,'11111222,11111222,11111222' 
TABS,ioos:station:wmo:42044:1,2010-03-25T21:30:00Z,26.1914,-97.0507,0.0,6.20623074,5.269430301,7.91,'11111222,11111222,11111222' 
TABS,ioos:station:wmo:42044:1,2010-03-25T22:00:00Z,26.1914,-97.0507,0.0,6.015687824,7.065721574,7.61,'11111222,11111222,11111222' 
TABS,ioos:station:wmo:42044:1,2010-03-25T22:30:00Z,26.1914,-97.0507,0.0,5.845143283,6.285842497,7.4,'11111222,11111222,11111222' 
TABS,ioos:station:wmo:42044:1,2010-03-25T23:00:00Z,26.1914,-97.0507,0.0,5.702324088,19.35617637,7.29,'11111222,11111222,11111222' 
TABS,ioos:station:wmo:42044:1,2010-03-25T23:30:00Z,26.1914,-97.0507,0.0,5.799862067,24.44368716,7.4,'11111222,11111222,11111222' 
TABS,ioos:station:wmo:42044:1,2010-03-26T00:00:00Z,26.1914,-97.0507,0.0,6.387550391,31.94804949,8.09,'11111222,11111222,11111222' 
TABS,ioos:station:wmo:42044:1,2010-03-26T00:30:00Z,26.1914,-97.0507,0.0,6.538333121,34.78353766,8.61,'11111222,11111222,11111222' 
TABS,ioos:station:wmo:42044:1,2010-03-26T01:00:00Z,26.1914,-97.0507,0.0,6.173953353,33.30369487,7.97,'11111222,11111222,11111222' 
TABS,ioos:station:wmo:42044:1,2010-03-26T01:30:00Z,26.1914,-97.0507,0.0,5.79668871,31.16688931,7.53,'11111222,11111222,11111222' 
TABS,ioos:station:wmo:42044:1,2010-03-26T02:00:00Z,26.1914,-97.0507,0.0,5.630568355,28.88630376,7.19,'11111222,11111222,11111222' 
TABS,ioos:station:wmo:42044:1,2010-03-26T02:30:00Z,26.1914,-97.0507,0.0,4.57790345,35.21730016,5.84,'11111222,11111222,11111222' 
TABS,ioos:station:wmo:42044:1,2010-03-26T03:00:00Z,26.1914,-97.0507,0.0,4.327262414,32.73493926,5.64,'11111222,11111222,11111222' 
TABS,ioos:station:wmo:42044:1,2010-03-26T03:30:00Z,26.1914,-97.0507,0.0,3.394495544,35.89057209,4.59,'11111222,11111222,11111222' 
TABS,ioos:station:wmo:42044:1,2010-03-26T04:00:00Z,26.1914,-97.0507,0.0,2.19592805,50.7286222,3.07,'11111222,11111222,11111222' 
TABS,ioos:station:wmo:42044:1,2010-03-26T04:30:00Z,26.1914,-97.0507,0.0,1.603277892,55.4175157,2.15,'11111222,11111222,11111222' 
TABS,ioos:station:wmo:42044:1,2010-03-26T05:00:00Z,26.1914,-97.0507,0.0,1.566301376,48.88257379,1.97,'11111222,11111222,11111222' 
TABS,ioos:station:wmo:42044:1,2010-03-26T05:30:00Z,26.1914,-97.0507,0.0,1.209338662,60.25476734,1.69,'11111222,11111222,11111222' 
TABS,ioos:station:wmo:42044:1,2010-03-26T06:00:00Z,26.1914,-97.0507,0.0,2.572566812,20.47758522,3.09,'11111222,11111222,11111222' 
TABS,ioos:station:wmo:42044:1,2010-03-26T06:30:00Z,26.1914,-97.0507,0.0,3.314362684,19.20004957,4.04,'11111222,11111222,11111222' 
TABS,ioos:station:wmo:42044:1,2010-03-26T07:00:00Z,26.1914,-97.0507,0.0,4.144212832,15.679277,5.11,'11111222,11111222,11111222' 
TABS,ioos:station:wmo:42044:1,2010-03-26T07:30:00Z,26.1914,-97.0507,0.0,3.61365466,21.59504949,4.68,'11111222,11111222,11111222' 
TABS,ioos:station:wmo:42044:1,2010-03-26T08:00:00Z,26.1914,-97.0507,0.0,4.079460749,17.99055186,5.02,'11111222,11111222,11111222' 
TABS,ioos:station:wmo:42044:1,2010-03-26T08:30:00Z,26.1914,-97.0507,0.0,4.203867267,26.8695398,5.32,'11111222,11111222,11111222' 
TABS,ioos:station:wmo:42044:1,2010-03-26T09:00:00Z,26.1914,-97.0507,0.0,4.835380026,27.73067149,6.03,'11111222,11111222,11111222' 
TABS,ioos:station:wmo:42044:1,2010-03-26T09:30:00Z,26.1914,-97.0507,0.0,5.131247412,34.27819936,6.48,'11111222,11111222,11111222' 
TABS,ioos:station:wmo:42044:1,2010-03-26T10:00:00Z,26.1914,-97.0507,0.0,5.50872036,34.49751836,7.58,'11111222,11111222,11111222' 
TABS,ioos:station:wmo:42044:1,2010-03-26T10:30:00Z,26.1914,-97.0507,0.0,5.812434946,44.86027912,7.42,'11111222,11111222,11111222' 
TABS,ioos:station:wmo:42044:1,2010-03-26T11:00:00Z,26.1914,-97.0507,0.0,5.396044848,53.3633661,6.96,'11111222,11111222,11111222' 
TABS,ioos:station:wmo:42044:1,2010-03-26T11:30:00Z,26.1914,-97.0507,0.0,4.820840176,59.17857325,6.39,'11111222,11111222,11111222' 
TABS,ioos:station:wmo:42044:1,2010-03-26T12:00:00Z,26.1914,-97.0507,0.0,4.803092754,63.27454674,6.3,'11111222,11111222,11111222' 
TABS,ioos:station:wmo:42044:1,2010-03-26T12:30:00Z,26.1914,-97.0507,0.0,4.579301257,58.39215075,5.86,'11111222,11111222,11111222' 
TABS,ioos:station:wmo:42044:1,2010-03-26T13:00:00Z,26.1914,-97.0507,0.0,4.370491963,72.1450725,5.78,'11111222,11111222,11111222' 
TABS,ioos:station:wmo:42044:1,2010-03-26T13:30:00Z,26.1914,-97.0507,0.0,4.225221888,73.92383398,5.44,'11111222,11111222,11111222' 
TABS,ioos:station:wmo:42044:1,2010-03-26T14:00:00Z,26.1914,-97.0507,0.0,4.534776731,71.88431103,5.73,'11111222,11111222,11111222' 
TABS,ioos:station:wmo:42044:1,2010-03-26T14:30:00Z,26.1914,-97.0507,0.0,4.531600159,73.7242401,5.84,'11111222,11111222,11111222' 
TABS,ioos:station:wmo:42044:1,2010-03-26T15:00:00Z,26.1914,-97.0507,0.0,4.574111936,74.1402499,5.95,'11111222,11111222,11111222' 
TABS,ioos:station:wmo:42044:1,2010-03-26T15:30:00Z,26.1914,-97.0507,0.0,4.622034184,66.54060986,5.71,'11111222,11111222,11111222' 
TABS,ioos:station:wmo:42044:1,2010-03-26T16:00:00Z,26.1914,-97.0507,0.0,4.364401448,72.39498691,5.36,'11111222,11111222,11111222' 
TABS,ioos:station:wmo:42044:1,2010-03-26T16:30:00Z,26.1914,-97.0507,0.0,4.671841179,65.4643333,5.93,'11111222,11111222,11111222' 
TABS,ioos:station:wmo:42044:1,2010-03-26T17:00:00Z,26.1914,-97.0507,0.0,4.62438104,69.09554888,6.05,'11111222,11111222,11111222' 
TABS,ioos:station:wmo:42044:1,2010-03-26T17:30:00Z,26.1914,-97.0507,0.0,4.494997219,78.83966131,5.71,'11111222,11111222,11111222' 
TABS,ioos:station:wmo:42044:1,2010-03-26T18:00:00Z,26.1914,-97.0507,0.0,4.05044442,89.1508168,5.16,'11111222,11111222,11111222' 
TABS,ioos:station:wmo:42044:1,2010-03-26T18:30:00Z,26.1914,-97.0507,0.0,4.080600446,90.98333801,5.35,'11111222,11111222,11111222' 
TABS,ioos:station:wmo:42044:1,2010-03-26T19:00:00Z,26.1914,-97.0507,0.0,3.953454186,96.24457171,5.04,'11111222,11111222,11111222' 
TABS,ioos:station:wmo:42044:1,2010-03-26T19:30:00Z,26.1914,-97.0507,0.0,4.020572099,105.730457,5.01,'11111222,11111222,11111222' 
TABS,ioos:station:wmo:42044:1,2010-03-26T20:00:00Z,26.1914,-97.0507,0.0,4.295136785,111.727466,5.65,'11111222,11111222,11111222' 
TABS,ioos:station:wmo:42044:1,2010-03-26T20:30:00Z,26.1914,-97.0507,0.0,4.428317965,115.4080796,5.66,'11111222,11111222,11111222' 
TABS,ioos:station:wmo:42044:1,2010-03-26T21:00:00Z,26.1914,-97.0507,0.0,4.677958957,116.9488359,6.36,'11111222,11111222,11111222' 
TABS,ioos:station:wmo:42044:1,2010-03-26T21:30:00Z,26.1914,-97.0507,0.0,5.075046798,118.7369558,6.38,'11111222,11111222,11111222' 
TABS,ioos:station:wmo:42044:1,2010-03-26T22:00:00Z,26.1914,-97.0507,0.0,5.684338132,117.1063441,7.09,'11111222,11111222,11111222' 
TABS,ioos:station:wmo:42044:1,2010-03-26T22:30:00Z,26.1914,-97.0507,0.0,5.862763853,118.7512057,7.39,'11111222,11111222,11111222' 
TABS,ioos:station:wmo:42044:1,2010-03-26T23:00:00Z,26.1914,-97.0507,0.0,5.977064497,118.1517851,7.21,'11111222,11111222,11111222' 
TABS,ioos:station:wmo:42044:1,2010-03-26T23:30:00Z,26.1914,-97.0507,0.0,5.894616188,120.4806793,7.41,'11111222,11111222,11111222' 
TABS,ioos:station:wmo:42044:1,2010-03-27T00:00:00Z,26.1914,-97.0507,0.0,6.045510731,128.8229521,7.89,'11111222,11111222,11111222' 
TABS,ioos:station:wmo:42044:1,2010-03-27T00:30:00Z,26.1914,-97.0507,0.0,6.264199869,128.3887329,8.58,'11111222,11111222,11111222' 
TABS,ioos:station:wmo:42044:1,2010-03-27T01:00:00Z,26.1914,-97.0507,0.0,6.686890159,130.6945575,8.43,'11111222,11111222,11111222' 
TABS,ioos:station:wmo:42044:1,2010-03-27T01:30:00Z,26.1914,-97.0507,0.0,6.700940233,131.6125608,8.42,'11111222,11111222,11111222' 
TABS,ioos:station:wmo:42044:1,2010-03-27T02:00:00Z,26.1914,-97.0507,0.0,6.633882724,133.9009606,8.3,'11111222,11111222,11111222' 
TABS,ioos:station:wmo:42044:1,2010-03-27T02:30:00Z,26.1914,-97.0507,0.0,6.694072004,137.179648,8.63,'11111222,11111222,11111222' 
TABS,ioos:station:wmo:42044:1,2010-03-27T03:00:00Z,26.1914,-97.0507,0.0,6.711788137,136.1472829,8.45,'11111222,11111222,11111222' 
TABS,ioos:station:wmo:42044:1,2010-03-27T03:30:00Z,26.1914,-97.0507,0.0,6.420420547,138.7891967,8.11,'11111222,11111222,11111222' 
TABS,ioos:station:wmo:42044:1,2010-03-27T04:00:00Z,26.1914,-97.0507,0.0,6.348322613,142.5527687,7.9,'11111222,11111222,11111222' 
TABS,ioos:station:wmo:42044:1,2010-03-27T04:30:00Z,26.1914,-97.0507,0.0,6.022897974,144.119797,8.15,'11111222,11111222,11111222' 
TABS,ioos:station:wmo:42044:1,2010-03-27T05:00:00Z,26.1914,-97.0507,0.0,5.969154044,145.5115423,7.51,'11111222,11111222,11111222' 
TABS,ioos:station:wmo:42044:1,2010-03-27T05:30:00Z,26.1914,-97.0507,0.0,5.597794208,151.5123488,7.13,'11111222,11111222,11111222' 
TABS,ioos:station:wmo:42044:1,2010-03-27T06:00:00Z,26.1914,-97.0507,0.0,5.854109668,153.7416123,7.29,'11111222,11111222,11111222' 
TABS,ioos:station:wmo:42044:1,2010-03-27T06:30:00Z,26.1914,-97.0507,0.0,6.312162862,150.0640011,7.96,'11111222,11111222,11111222' 
TABS,ioos:station:wmo:42044:1,2010-03-27T07:00:00Z,26.1914,-97.0507,0.0,6.358144383,150.6130727,8.45,'11111222,11111222,11111222' 
TABS,ioos:station:wmo:42044:1,2010-03-27T07:30:00Z,26.1914,-97.0507,0.0,6.109959083,150.1623486,7.73,'11111222,11111222,11111222' 
TABS,ioos:station:wmo:42044:1,2010-03-27T08:00:00Z,26.1914,-97.0507,0.0,6.332645577,153.7589222,8.26,'11111222,11111222,11111222' 
TABS,ioos:station:wmo:42044:1,2010-03-27T08:30:00Z,26.1914,-97.0507,0.0,5.724377695,153.6590314,7.35,'11111222,11111222,11111222' 
TABS,ioos:station:wmo:42044:1,2010-03-27T09:00:00Z,26.1914,-97.0507,0.0,6.310451648,153.9630898,8.29,'11111222,11111222,11111222' 
TABS,ioos:station:wmo:42044:1,2010-03-27T09:30:00Z,26.1914,-97.0507,0.0,6.294712066,151.8474757,8.3,'11111222,11111222,11111222' 
TABS,ioos:station:wmo:42044:1,2010-03-27T10:00:00Z,26.1914,-97.0507,0.0,6.194917271,154.4693265,8.24,'11111222,11111222,11111222' 
TABS,ioos:station:wmo:42044:1,2010-03-27T10:30:00Z,26.1914,-97.0507,0.0,6.442359816,151.8440849,8.25,'11111222,11111222,11111222' 
TABS,ioos:station:wmo:42044:1,2010-03-27T11:00:00Z,26.1914,-97.0507,0.0,7.092940152,147.3184493,8.79,'11111222,11111222,11111222' 
TABS,ioos:station:wmo:42044:1,2010-03-27T11:30:00Z,26.1914,-97.0507,0.0,7.124387693,153.9387483,9.19,'11111222,11111222,11111222' 
TABS,ioos:station:wmo:42044:1,2010-03-27T12:00:00Z,26.1914,-97.0507,0.0,7.530166001,157.760842,9.71,'11111222,11111222,11111222' 
TABS,ioos:station:wmo:42044:1,2010-03-27T12:30:00Z,26.1914,-97.0507,0.0,7.710875437,159.0267661,9.91,'11111222,11111222,11111222' 
TABS,ioos:station:wmo:42044:1,2010-03-27T13:00:00Z,26.1914,-97.0507,0.0,7.672626669,160.6679195,10.4,'11111222,11111222,11111222' 
TABS,ioos:station:wmo:42044:1,2010-03-27T13:30:00Z,26.1914,-97.0507,0.0,8.128037894,162.4569938,10.62,'11111222,11111222,11111222' 
TABS,ioos:station:wmo:42044:1,2010-03-27T14:00:00Z,26.1914,-97.0507,0.0,8.06367162,164.7575911,10.57,'11111222,11111222,11111222' 
TABS,ioos:station:wmo:42044:1,2010-03-27T14:30:00Z,26.1914,-97.0507,0.0,7.760734501,167.2712384,10.52,'11111222,11111222,11111222' 
TABS,ioos:station:wmo:42044:1,2010-03-27T15:00:00Z,26.1914,-97.0507,0.0,7.416589513,171.2364483,9.33,'11111222,11111222,11111222' 
TABS,ioos:station:wmo:42044:1,2010-03-27T15:30:00Z,26.1914,-97.0507,0.0,7.074941696,172.8551211,9.09,'11111222,11111222,11111222' 
TABS,ioos:station:wmo:42044:1,2010-03-27T16:00:00Z,26.1914,-97.0507,0.0,6.08266389,181.6959678,7.83,'11111222,11111222,11111222' 
TABS,ioos:station:wmo:42044:1,2010-03-27T16:30:00Z,26.1914,-97.0507,0.0,4.701797529,181.5845797,6.4,'11111222,11111222,11111222' 
TABS,ioos:station:wmo:42044:1,2010-03-27T17:00:00Z,26.1914,-97.0507,0.0,5.652415413,168.0541541,7.06,'11111222,11111222,11111222' 
TABS,ioos:station:wmo:42044:1,2010-03-27T17:30:00Z,26.1914,-97.0507,0.0,5.14595958,160.4737558,6.6,'11111222,11111222,11111222' 
TABS,ioos:station:wmo:42044:1,2010-03-27T18:00:00Z,26.1914,-97.0507,0.0,5.323532662,154.8793436,6.69,'11111222,11111222,11111222' 
TABS,ioos:station:wmo:42044:1,2010-03-27T18:30:00Z,26.1914,-97.0507,0.0,4.372687961,137.0391056,5.36,'11111222,11111222,11111222' 
TABS,ioos:station:wmo:42044:1,2010-03-27T19:00:00Z,26.1914,-97.0507,0.0,4.830414061,133.9099007,5.95,'11111222,11111222,11111222' 
TABS,ioos:station:wmo:42044:1,2010-03-27T19:30:00Z,26.1914,-97.0507,0.0,5.274097079,127.2178695,6.44,'11111222,11111222,11111222' 
TABS,ioos:station:wmo:42044:1,2010-03-27T20:00:00Z,26.1914,-97.0507,0.0,4.87239161,118.3011105,6.04,'11111222,11111222,11111222' 
TABS,ioos:station:wmo:42044:1,2010-03-27T20:30:00Z,26.1914,-97.0507,0.0,5.287655435,117.9708587,6.4,'11111222,11111222,11111222' 
TABS,ioos:station:wmo:42044:1,2010-03-27T21:00:00Z,26.1914,-97.0507,0.0,5.261178575,118.1240905,6.64,'11111222,11111222,11111222' 
TABS,ioos:station:wmo:42044:1,2010-03-27T21:30:00Z,26.1914,-97.0507,0.0,5.766333324,126.2541739,7.0,'11111222,11111222,11111222' 
TABS,ioos:station:wmo:42044:1,2010-03-27T22:00:00Z,26.1914,-97.0507,0.0,5.54221075,124.6366481,6.78,'11111222,11111222,11111222' 
TABS,ioos:station:wmo:42044:1,2010-03-27T22:30:00Z,26.1914,-97.0507,0.0,5.214326419,123.2637478,6.42,'11111222,11111222,11111222' 
TABS,ioos:station:wmo:42044:1,2010-03-27T23:00:00Z,26.1914,-97.0507,0.0,5.032941486,118.0929318,6.01,'11111222,11111222,11111222' 
TABS,ioos:station:wmo:42044:1,2010-03-27T23:30:00Z,26.1914,-97.0507,0.0,4.63061551,120.497262,5.46,'11111222,11111222,11111222' 
TABS,ioos:station:wmo:42044:1,2010-03-28T00:00:00Z,26.1914,-97.0507,0.0,4.876894504,124.8961127,6.39,'11111222,11111222,11111222' 
TABS,ioos:station:wmo:42044:1,2010-03-28T00:30:00Z,26.1914,-97.0507,0.0,4.568851059,121.3942445,5.44,'11111222,11111222,11111222' 
TABS,ioos:station:wmo:42044:1,2010-03-28T01:00:00Z,26.1914,-97.0507,0.0,3.855308029,113.7063304,5.02,'11111222,11111222,11111222' 
TABS,ioos:station:wmo:42044:1,2010-03-28T01:30:00Z,26.1914,-97.0507,0.0,3.457311094,99.48996572,4.05,'11111222,11111222,11111222' 
TABS,ioos:station:wmo:42044:1,2010-03-28T02:00:00Z,26.1914,-97.0507,0.0,3.497942252,109.3677232,4.38,'11111222,11111222,11111222' 
TABS,ioos:station:wmo:42044:1,2010-03-28T02:30:00Z,26.1914,-97.0507,0.0,3.51,112.620233,4.35,'11111222,11111222,11111222' 
TABS,ioos:station:wmo:42044:1,2010-03-28T03:00:00Z,26.1914,-97.0507,0.0,2.570700294,88.6621805,3.53,'11111222,11111222,11111222' 
TABS,ioos:station:wmo:42044:1,2010-03-28T03:30:00Z,26.1914,-97.0507,0.0,1.113642672,62.74431444,1.47,'11111222,11111222,11111222' 
TABS,ioos:station:wmo:42044:1,2010-03-28T04:00:00Z,26.1914,-97.0507,0.0,0.53075418,47.290289,0.93,'11111222,11111222,11111222' 
TABS,ioos:station:wmo:42044:1,2010-03-28T04:30:00Z,26.1914,-97.0507,0.0,0.910878697,357.4829198,1.38,'11111222,11111222,11111222' 
TABS,ioos:station:wmo:42044:1,2010-03-28T05:00:00Z,26.1914,-97.0507,0.0,1.33454112,355.2718128,1.78,'11111222,11111222,11111222' 
TABS,ioos:station:wmo:42044:1,2010-03-28T05:30:00Z,26.1914,-97.0507,0.0,0.76216796,109.1485136,1.22,'11111222,11111222,11111222' 
TABS,ioos:station:wmo:42044:1,2010-03-28T06:00:00Z,26.1914,-97.0507,0.0,0.832346082,35.21730016,1.16,'11111222,11111222,11111222' 
TABS,ioos:station:wmo:42044:1,2010-03-28T06:30:00Z,26.1914,-97.0507,0.0,0.706045324,74.38862705,1.11,'11111222,11111222,11111222' 
TABS,ioos:station:wmo:42044:1,2010-03-28T07:00:00Z,26.1914,-97.0507,0.0,0.885098865,57.92565321,1.17,'11111222,11111222,11111222' 
TABS,ioos:station:wmo:42044:1,2010-03-28T07:30:00Z,26.1914,-97.0507,0.0,1.782161609,36.0979891,2.23,'11111222,11111222,11111222' 
TABS,ioos:station:wmo:42044:1,2010-03-28T08:00:00Z,26.1914,-97.0507,0.0,1.900578859,32.10096337,2.27,'11111222,11111222,11111222' 
TABS,ioos:station:wmo:42044:1,2010-03-28T08:30:00Z,26.1914,-97.0507,0.0,2.198021838,29.13028099,2.62,'11111222,11111222,11111222' 
TABS,ioos:station:wmo:42044:1,2010-03-28T09:00:00Z,26.1914,-97.0507,0.0,2.161897315,9.854220998,2.75,'11111222,11111222,11111222' 
TABS,ioos:station:wmo:42044:1,2010-03-28T09:30:00Z,26.1914,-97.0507,0.0,2.865309756,336.1185694,4.0,'11111222,11111222,11111222' 
TABS,ioos:station:wmo:42044:1,2010-03-28T10:00:00Z,26.1914,-97.0507,0.0,3.975738925,338.1449087,4.86,'11111222,11111222,11111222' 
TABS,ioos:station:wmo:42044:1,2010-03-28T10:30:00Z,26.1914,-97.0507,0.0,4.19440103,342.9473158,5.63,'11111222,11111222,11111222' 
TABS,ioos:station:wmo:42044:1,2010-03-28T11:00:00Z,26.1914,-97.0507,0.0,6.114057573,344.4406011,7.75,'11111222,11111222,11111222' 
TABS,ioos:station:wmo:42044:1,2010-03-28T11:30:00Z,26.1914,-97.0507,0.0,6.024699163,348.8017889,8.1,'11111222,11111222,11111222' 
TABS,ioos:station:wmo:42044:1,2010-03-28T12:00:00Z,26.1914,-97.0507,0.0,6.224186694,356.130614,7.88,'11111222,11111222,11111222' 
TABS,ioos:station:wmo:42044:1,2010-03-28T12:30:00Z,26.1914,-97.0507,0.0,6.487780822,355.7568808,8.24,'11111222,11111222,11111222' 
TABS,ioos:station:wmo:42044:1,2010-03-28T13:00:00Z,26.1914,-97.0507,0.0,6.959554583,10.17943206,9.32,'11111222,11111222,11111222' 
TABS,ioos:station:wmo:42044:1,2010-03-28T13:30:00Z,26.1914,-97.0507,0.0,7.851477568,13.32802701,10.24,'11111222,11111222,11111222' 
TABS,ioos:station:wmo:42044:1,2010-03-28T14:00:00Z,26.1914,-97.0507,0.0,7.908792575,16.83083623,10.18,'11111222,11111222,11111222' 
TABS,ioos:station:wmo:42044:1,2010-03-28T14:30:00Z,26.1914,-97.0507,0.0,8.523496935,14.81858982,11.17,'11111222,11111222,11111222' 
TABS,ioos:station:wmo:42044:1,2010-03-28T15:00:00Z,26.1914,-97.0507,0.0,8.80592982,11.79459146,11.48,'11111222,11111222,11111222' 
TABS,ioos:station:wmo:42044:1,2010-03-28T15:30:00Z,26.1914,-97.0507,0.0,8.970646576,8.590540542,12.36,'11111222,11111222,11111222' 
TABS,ioos:station:wmo:42044:1,2010-03-28T16:00:00Z,26.1914,-97.0507,0.0,9.634542023,13.19941628,12.21,'11111222,11111222,11111222' 
TABS,ioos:station:wmo:42044:1,2010-03-28T16:30:00Z,26.1914,-97.0507,0.0,8.91185727,6.183770541,11.45,'11111222,11111222,11111222' 
TABS,ioos:station:wmo:42044:1,2010-03-28T17:00:00Z,26.1914,-97.0507,0.0,8.466433724,357.7659855,11.37,'11111222,11111222,11111222' 
TABS,ioos:station:wmo:42044:1,2010-03-28T17:30:00Z,26.1914,-97.0507,0.0,8.837765555,355.4568985,11.64,'11111222,11111222,11111222' 
TABS,ioos:station:wmo:42044:1,2010-03-28T18:00:00Z,26.1914,-97.0507,0.0,9.187518707,346.4022118,11.51,'11111222,11111222,11111222' 
TABS,ioos:station:wmo:42044:1,2010-03-28T18:30:00Z,26.1914,-97.0507,0.0,8.269038638,338.0568971,10.49,'11111222,11111222,11111222' 
TABS,ioos:station:wmo:42044:1,2010-03-28T19:00:00Z,26.1914,-97.0507,0.0,7.983695886,342.8812716,9.98,'11111222,11111222,11111222' 
TABS,ioos:station:wmo:42044:1,2010-03-28T19:30:00Z,26.1914,-97.0507,0.0,7.152908499,346.6629824,8.73,'11111222,11111222,11111222' 
TABS,ioos:station:wmo:42044:1,2010-03-28T20:00:00Z,26.1914,-97.0507,0.0,6.840182746,0.4186099,8.51,'11111222,11111222,11111222' 
TABS,ioos:station:wmo:42044:1,2010-03-28T20:30:00Z,26.1914,-97.0507,0.0,6.127193485,9.677312393,7.77,'11111222,11111222,11111222' 
TABS,ioos:station:wmo:42044:1,2010-03-28T21:00:00Z,26.1914,-97.0507,0.0,6.613357695,17.42096132,8.25,'11111222,11111222,11111222' 
TABS,ioos:station:wmo:42044:1,2010-03-28T21:30:00Z,26.1914,-97.0507,0.0,6.225126505,11.9595238,8.21,'11111222,11111222,11111222' 
TABS,ioos:station:wmo:42044:1,2010-03-28T22:00:00Z,26.1914,-97.0507,0.0,5.578422716,13.68724839,7.14,'11111222,11111222,11111222' 
TABS,ioos:station:wmo:42044:1,2010-03-28T22:30:00Z,26.1914,-97.0507,0.0,5.230544905,18.85037584,6.74,'11111222,11111222,11111222' 
TABS,ioos:station:wmo:42044:1,2010-03-28T23:00:00Z,26.1914,-97.0507,0.0,4.66691547,24.6977006,6.21,'11111222,11111222,11111222' 
TABS,ioos:station:wmo:42044:1,2010-03-28T23:30:00Z,26.1914,-97.0507,0.0,4.175547868,23.12625585,5.41,'11111222,11111222,11111222' 
TABS,ioos:station:wmo:42044:1,2010-03-29T00:00:00Z,26.1914,-97.0507,0.0,4.110133818,23.82068214,5.67,'11111222,11111222,11111222' 
TABS,ioos:station:wmo:42044:1,2010-03-29T00:30:00Z,26.1914,-97.0507,0.0,3.805811346,26.36279714,5.13,'11111222,11111222,11111222' 
TABS,ioos:station:wmo:42044:1,2010-03-29T01:00:00Z,26.1914,-97.0507,0.0,3.808214805,3.763815604,5.39,'11111222,11111222,11111222' 
TABS,ioos:station:wmo:42044:1,2010-03-29T01:30:00Z,26.1914,-97.0507,0.0,2.546075411,19.50219244,3.61,'11111222,11111222,11111222' 